Tiempo cada hora Bartniki

Hoy, 1 Marzo, Lunes

Tiempo Temperatura Precipitaciones Viento Presión Humedad
00:00 +2°C° 0 mm 3 mps 765 mmHg 87%
01:00 +2°C° 0 mm 3 mps 765 mmHg 87%
02:00 +1°C° 0 mm 3 mps 765 mmHg 88%
03:00 +2°C° 0 mm 2 mps 765 mmHg 89%
04:00 +2°C° 0 mm 2 mps 765 mmHg 90%
05:00 +2°C° 0 mm 2 mps 765 mmHg 91%
06:00 +1°C° 0 mm 2 mps 765 mmHg 91%
07:00 +1°C° 0 mm 2 mps 766 mmHg 92%
08:00 +2°C° 0 mm 2 mps 766 mmHg 88%
09:00 +3°C° 0 mm 2 mps 766 mmHg 85%
10:00 +4°C° 0 mm 2 mps 766 mmHg 81%
11:00 +5°C° 0 mm 2 mps 766 mmHg 77%
12:00 +6°C° 0 mm 2 mps 766 mmHg 73%
13:00 +7°C° 0 mm 2 mps 766 mmHg 69%
14:00 +7°C° 0 mm 2 mps 766 mmHg 68%
15:00 +7°C° 0 mm 2 mps 765 mmHg 67%
16:00 +9°C° 0 mm 1 mps 765 mmHg 66%
17:00 +8°C° 0 mm 1 mps 765 mmHg 71%
18:00 +7°C° 0 mm 1 mps 765 mmHg 76%
19:00 +5°C° 0 mm 2 mps 765 mmHg 81%
20:00 +4°C° 0 mm 2 mps 765 mmHg 82%
21:00 +4°C° 0 mm 2 mps 765 mmHg 84%
22:00 +3°C° 0 mm 2 mps 765 mmHg 86%
23:00 +3°C° 0 mm 2 mps 765 mmHg 87%

Mañana, 2 Marzo, Martes

Tiempo Temperatura Precipitaciones Viento Presión Humedad
00:00 +3°C° 0 mm 2 mps 765 mmHg 88%
01:00 +3°C° 0 mm 2 mps 765 mmHg 89%
02:00 +2°C° 0 mm 2 mps 765 mmHg 89%
03:00 +2°C° 0 mm 2 mps 765 mmHg 89%
04:00 +2°C° 0 mm 2 mps 764 mmHg 89%
05:00 +2°C° 0 mm 2 mps 764 mmHg 89%
06:00 +2°C° 0 mm 2 mps 765 mmHg 89%
07:00 +2°C° 0 mm 2 mps 765 mmHg 89%
08:00 +4°C° 0 mm 2 mps 765 mmHg 83%
09:00 +5°C° 0 mm 2 mps 765 mmHg 76%
10:00 +7°C° 0 mm 3 mps 764 mmHg 70%
11:00 +8°C° 0 mm 3 mps 764 mmHg 66%
12:00 +10°C° 0 mm 3 mps 764 mmHg 62%
13:00 +11°C° 0 mm 3 mps 764 mmHg 57%
14:00 +11°C° 0 mm 3 mps 764 mmHg 58%
15:00 +11°C° 0 mm 3 mps 764 mmHg 58%
16:00 +12°C° 0 mm 2 mps 763 mmHg 59%
17:00 +9°C° 0 mm 2 mps 763 mmHg 64%
18:00 +8°C° 0 mm 2 mps 764 mmHg 69%
19:00 +8°C° 0 mm 1 mps 764 mmHg 75%
20:00 +7°C° 0 mm 1 mps 764 mmHg 76%
21:00 +6°C° 0 mm 1 mps 764 mmHg 78%
22:00 +6°C° 0 mm 1 mps 764 mmHg 80%
23:00 +5°C° 0 mm 1 mps 764 mmHg 81%

Pasado mañana, 3 Marzo, Miércoles

Tiempo Temperatura Precipitaciones Viento Presión Humedad
00:00 +4°C° 0 mm 0 mps 764 mmHg 82%
01:00 +4°C° 0 mm 0 mps 764 mmHg 84%
02:00 +3°C° 0 mm 0 mps 764 mmHg 84%
03:00 +3°C° 0 mm 0 mps 763 mmHg 85%
04:00 +3°C° 0 mm 0 mps 763 mmHg 85%
05:00 +4°C° 0 mm 1 mps 763 mmHg 85%
06:00 +3°C° 0 mm 1 mps 763 mmHg 85%
07:00 +3°C° 0 mm 1 mps 763 mmHg 86%
08:00 +5°C° 0 mm 1 mps 762 mmHg 78%
09:00 +7°C° 0 mm 1 mps 762 mmHg 71%
10:00 +9°C° 0 mm 1 mps 762 mmHg 64%
11:00 +10°C° 0 mm 1 mps 762 mmHg 59%
12:00 +11°C° 0 mm 1 mps 761 mmHg 54%
13:00 +13°C° 0 mm 1 mps 760 mmHg 49%
14:00 +13°C° 0 mm 1 mps 760 mmHg 50%
15:00 +13°C° 0 mm 1 mps 759 mmHg 51%
16:00 +13°C° 0 mm 1 mps 758 mmHg 53%
17:00 +12°C° 0 mm 1 mps 758 mmHg 58%
18:00 +10°C° 0 mm 1 mps 758 mmHg 63%
19:00 +9°C° 0 mm 1 mps 757 mmHg 68%
20:00 +7°C° 0 mm 2 mps 757 mmHg 69%
21:00 +7°C° 0 mm 2 mps 756 mmHg 71%
22:00 +6°C° 0 mm 2 mps 756 mmHg 73%
23:00 +5°C° 0 mm 3 mps 755 mmHg 74%

4 Marzo, Jueves

Tiempo Temperatura Precipitaciones Viento Presión Humedad
00:00 +4°C° 0 mm 3 mps 755 mmHg 74%
01:00 +4°C° 0 mm 3 mps 754 mmHg 75%
02:00 +3°C° 0 mm 3 mps 754 mmHg 77%
03:00 +3°C° 0 mm 3 mps 753 mmHg 80%
04:00 +3°C° 0 mm 3 mps 753 mmHg 82%
05:00 +3°C° 0 mm 3 mps 753 mmHg 85%
06:00 +3°C° 0 mm 3 mps 752 mmHg 88%
07:00 +2°C° 0 mm 3 mps 752 mmHg 91%
08:00 +4°C° 0 mm 4 mps 752 mmHg 87%
09:00 +5°C° 0 mm 4 mps 751 mmHg 83%
10:00 +7°C° 0 mm 4 mps 751 mmHg 79%
11:00 +7°C° 0 mm 5 mps 751 mmHg 78%
12:00 +7°C° 0 mm 5 mps 750 mmHg 76%
13:00 +8°C° 0 mm 5 mps 750 mmHg 75%
14:00 +8°C° 0.1 mm 5 mps 750 mmHg 75%
15:00 +7°C° 0.1 mm 5 mps 749 mmHg 76%
16:00 +7°C° 0.1 mm 5 mps 749 mmHg 77%
17:00 +7°C° 0.3 mm 4 mps 748 mmHg 79%
18:00 +7°C° 0.3 mm 3 mps 748 mmHg 82%
19:00 +6°C° 0.3 mm 2 mps 748 mmHg 85%
20:00 +6°C° 0 mm 2 mps 748 mmHg 86%
21:00 +6°C° 0 mm 2 mps 748 mmHg 87%
22:00 +6°C° 0 mm 2 mps 748 mmHg 89%
23:00 +6°C° 0.2 mm 1 mps 747 mmHg 88%

5 Marzo, Viernes

Tiempo Temperatura Precipitaciones Viento Presión Humedad
00:00 +6°C° 0.2 mm 1 mps 747 mmHg 88%
01:00 +6°C° 0.2 mm 1 mps 747 mmHg 88%
02:00 +6°C° 0 mm 1 mps 747 mmHg 88%
03:00 +4°C° 0 mm 2 mps 747 mmHg 88%
04:00 +4°C° 0 mm 2 mps 746 mmHg 89%
05:00 +2°C° 0.1 mm 3 mps 747 mmHg 91%
06:00 +2°C° 0.1 mm 3 mps 747 mmHg 93%
07:00 0°C° 0.1 mm 4 mps 747 mmHg 95%
08:00 0°C° 0.3 mm 5 mps 748 mmHg 93%
09:00 -1°C° 0.3 mm 5 mps 748 mmHg 92%
10:00 -2°C° 0.3 mm 6 mps 749 mmHg 91%
11:00 -2°C° 0.1 mm 6 mps 750 mmHg 85%
12:00 -2°C° 0.1 mm 6 mps 750 mmHg 80%
13:00 -2°C° 0.1 mm 6 mps 751 mmHg 75%
14:00 -1°C° 0 mm 6 mps 752 mmHg 66%
15:00 0°C° 0 mm 5 mps 752 mmHg 57%
16:00 0°C° 0 mm 5 mps 753 mmHg 48%
17:00 -1°C° 0 mm 4 mps 754 mmHg 53%
18:00 0°C° 0 mm 3 mps 754 mmHg 58%
19:00 -1°C° 0 mm 3 mps 755 mmHg 64%
20:00 -2°C° 0 mm 2 mps 756 mmHg 67%
21:00 -2°C° 0 mm 2 mps 757 mmHg 70%
22:00 -2°C° 0 mm 2 mps 757 mmHg 73%
23:00 -2°C° 0 mm 2 mps 758 mmHg 73%

6 Marzo, Sábado

Tiempo Temperatura Precipitaciones Viento Presión Humedad
00:00 -4°C° 0 mm 3 mps 758 mmHg 73%
01:00 -4°C° 0 mm 3 mps 759 mmHg 73%
02:00 -4°C° 0 mm 3 mps 759 mmHg 72%
03:00 -4°C° 0 mm 3 mps 759 mmHg 70%
04:00 -4°C° 0 mm 4 mps 760 mmHg 69%
05:00 -4°C° 0 mm 4 mps 760 mmHg 68%
06:00 -4°C° 0 mm 3 mps 761 mmHg 67%
07:00 -4°C° 0 mm 3 mps 762 mmHg 65%
08:00 -2°C° 0 mm 3 mps 762 mmHg 58%
09:00 -2°C° 0 mm 4 mps 762 mmHg 52%
10:00 -1°C° 0 mm 4 mps 763 mmHg 45%
11:00 -1°C° 0 mm 4 mps 763 mmHg 42%
12:00 0°C° 0 mm 4 mps 763 mmHg 40%
13:00 +1°C° 0 mm 3 mps 763 mmHg 37%
14:00 +1°C° 0 mm 3 mps 763 mmHg 38%
15:00 +1°C° 0 mm 3 mps 763 mmHg 39%
16:00 +1°C° 0 mm 3 mps 763 mmHg 40%
17:00 +1°C° 0 mm 2 mps 763 mmHg 44%
18:00 -1°C° 0 mm 2 mps 764 mmHg 48%
19:00 0°C° 0 mm 1 mps 764 mmHg 52%
20:00 -2°C° 0 mm 2 mps 764 mmHg 51%
21:00 -2°C° 0 mm 2 mps 764 mmHg 51%
22:00 -2°C° 0 mm 2 mps 765 mmHg 51%
23:00 -3°C° 0 mm 2 mps 765 mmHg 52%
Mostrar más

Necesitamos Su Consentimiento

Meteoprog y nuestros Proveedores de Servicios pueden almacenar y acceder a sus datos personales como cookies, identificadores de dispositivo u otras tecnologías similares de su dispositivo y procesar dichos datos para personalizar contenido y anuncios, además de ofrecer funciones de redes sociales y analizar el tráfico.

  • Almacenar y/o acceder a información en su dispositivo

    Se puede almacenar o acceder a cookies, identificadores de dispositivo u otra información de su dispositivo para los fines anteriormente indicados.

  • Anuncios y contenido personalizados, medición de anuncios y contenido, percepciones del público, y desarrollo de productos

    Los anuncios y el contenido pueden personalizarse en base a su perfil. Se pueden añadir más datos para personalizar mejor los anuncios y contenidos. Se puede medir el rendimiento de los anuncios y contenidos. Se puede obtener la percepción sobre el público que ha visto los anuncios y contenidos. Dichos datos pueden usarse para desarrollar o mejorar la experiencia del usuario, sistemas y software.

Al hacer clic en ‘Estoy De Acuerdo’ usted permitirá el uso de las cookies, identificadores de dispositivo, balizas web u otras tecnologías similares indicadas. Su configuración puede cambiarse desde el navegador de su dispositivo.

Para ciertos fines, los intereses legítimos pueden ser considerados por encima del consentimiento. Puede leer más sobre ello en nuestra Política de Privacidad y Cookies.